Time,TemperatureF,DewpointF,PressureIn,WindDirection,WindDirectionDegrees,WindSpeedMPH,WindSpeedGustMPH,Humidity,HourlyPrecipIn,Conditions,Clouds,dailyrainin,SoftwareType,DateUTC
2013-08-04 00:00:00,55.3,53.0,30.01,NNW,329,0.0,0.0,92,0.00,CLR,,0.00,WeatherDisplay:10.37,2013-08-04 05:00:00,
2013-08-04 00:05:00,55.1,52.8,30.01,NNW,329,0.0,0.0,92,0.00,CLR,,0.00,WeatherDisplay:10.37,2013-08-04 05:05:00,
2013-08-04 00:09:00,55.0,52.7,30.01,NNW,329,0.0,0.0,92,0.00,CLR,,0.00,WeatherDisplay:10.37,2013-08-04 05:09:00,
2013-08-04 00:15:00,55.0,52.7,30.01,NNW,329,0.0,0.0,92,0.00,CLR,,0.00,WeatherDisplay:10.37,2013-08-04 05:15:00,
2013-08-04 00:19:00,54.8,52.5,30.02,NNW,329,0.0,0.0,92,0.00,CLR,,0.00,WeatherDisplay:10.37,2013-08-04 05:19:00,
2013-08-04 00:25:00,54.8,52.5,30.02,NNW,329,0.0,0.0,92,0.00,CLR,,0.00,WeatherDisplay:10.37,2013-08-04 05:25:00,
2013-08-04 00:30:00,54.7,52.5,30.02,NNW,329,0.0,0.0,92,0.00,CLR,,0.00,WeatherDisplay:10.37,2013-08-04 05:30:00,
2013-08-04 00:35:00,54.7,52.4,30.03,NNW,329,0.0,0.0,92,0.00,CLR,,0.00,WeatherDisplay:10.37,2013-08-04 05:35:00,
2013-08-04 00:40:00,54.5,52.2,30.03,NNW,329,0.0,0.0,92,0.00,CLR,,0.00,WeatherDisplay:10.37,2013-08-04 05:40:00,
2013-08-04 00:44:00,54.8,52.8,30.03,NNW,329,0.0,0.0,93,0.00,CLR,,0.00,WeatherDisplay:10.37,2013-08-04 05:44:00,
2013-08-04 00:49:00,55.0,52.7,30.03,NNW,329,0.0,0.0,92,0.00,CLR,,0.00,WeatherDisplay:10.37,2013-08-04 05:49:00,
2013-08-04 00:55:00,55.3,53.3,30.03,NNW,329,0.0,0.0,93,0.00,CLR,,0.00,WeatherDisplay:10.37,2013-08-04 05:55:00,
2013-08-04 00:59:00,55.4,53.1,30.03,NNW,329,0.0,0.0,92,0.00,CLR,,0.00,WeatherDisplay:10.37,2013-08-04 05:59:00,
2013-08-04 01:05:00,55.6,53.3,30.04,NNW,329,0.0,0.0,92,0.00,CLR,,0.00,WeatherDisplay:10.37,2013-08-04 06:05:00,
2013-08-04 01:10:00,55.7,53.1,30.04,NNW,334,0.0,0.0,91,0.00,CLR,,0.00,WeatherDisplay:10.37,2013-08-04 06:10:00,
2013-08-04 01:15:00,55.7,52.5,30.04,NNW,338,0.0,1.0,89,0.00,CLR,,0.00,WeatherDisplay:10.37,2013-08-04 06:15:00,
2013-08-04 01:20:00,55.9,52.4,30.03,NNW,338,0.0,0.0,88,0.00,CLR,,0.00,WeatherDisplay:10.37,2013-08-04 06:20:00,
2013-08-04 01:25:00,55.9,52.4,30.03,NNW,339,0.0,0.0,88,0.00,CLR,,0.00,WeatherDisplay:10.37,2013-08-04 06:25:00,
2013-08-04 01:30:00,55.7,52.2,30.03,NNW,340,0.0,1.0,88,0.00,CLR,,0.00,WeatherDisplay:10.37,2013-08-04 06:30:00,
2013-08-04 01:35:00,55.9,52.4,30.05,NNW,340,0.0,0.0,88,0.00,CLR,,0.00,WeatherDisplay:10.37,2013-08-04 06:35:00,
2013-08-04 01:40:00,55.9,52.4,30.05,NNW,340,0.0,0.0,88,0.00,CLR,,0.00,WeatherDisplay:10.37,2013-08-04 06:40:00,
2013-08-04 01:45:00,55.9,52.4,30.05,NNW,340,0.0,0.0,88,0.00,CLR,,0.00,WeatherDisplay:10.37,2013-08-04 06:45:00,
2013-08-04 01:50:00,55.9,52.4,30.05,NNW,340,0.0,0.0,88,0.00,CLR,,0.00,WeatherDisplay:10.37,2013-08-04 06:50:00,
2013-08-04 01:55:00,55.7,52.2,30.05,NNW,340,0.0,0.0,88,0.00,CLR,,0.00,WeatherDisplay:10.37,2013-08-04 06:55:00,
2013-08-04 02:00:00,55.4,51.9,30.05,NNW,340,0.0,0.0,88,0.00,CLR,,0.00,WeatherDisplay:10.37,2013-08-04 07:00:00,
2013-08-04 02:05:00,55.1,51.9,30.05,NNW,340,0.0,0.0,89,0.00,CLR,,0.00,WeatherDisplay:10.37,2013-08-04 07:05:00,
2013-08-04 02:09:00,54.8,51.9,30.05,NNW,340,0.0,1.0,90,0.00,CLR,,0.00,WeatherDisplay:10.37,2013-08-04 07:09:00,
2013-08-04 02:15:00,54.5,51.9,30.05,NNW,340,0.0,0.0,91,0.00,CLR,,0.00,WeatherDisplay:10.37,2013-08-04 07:15:00,
2013-08-04 02:19:00,54.4,52.1,30.05,NNW,340,0.0,0.0,92,0.00,CLR,,0.00,WeatherDisplay:10.37,2013-08-04 07:19:00,
2013-08-04 02:25:00,54.1,51.9,30.05,NNW,340,0.0,0.0,92,0.00,CLR,,0.00,WeatherDisplay:10.37,2013-08-04 07:25:00,
2013-08-04 02:30:00,53.9,51.6,30.05,NNW,340,0.0,0.0,92,0.00,CLR,,0.00,WeatherDisplay:10.37,2013-08-04 07:30:00,
2013-08-04 02:35:00,53.8,51.5,30.06,NNW,340,0.0,0.0,92,0.00,CLR,,0.00,WeatherDisplay:10.37,2013-08-04 07:35:00,
2013-08-04 02:40:00,53.6,51.3,30.06,NNW,340,0.0,0.0,92,0.00,CLR,,0.00,WeatherDisplay:10.37,2013-08-04 07:40:00,
2013-08-04 02:45:00,53.5,51.5,30.06,NNW,340,0.0,0.0,93,0.00,CLR,,0.00,WeatherDisplay:10.37,2013-08-04 07:45:00,
2013-08-04 02:50:00,53.3,51.3,30.05,NNW,340,0.0,0.0,93,0.00,CLR,,0.00,WeatherDisplay:10.37,2013-08-04 07:50:00,
2013-08-04 02:55:00,53.2,51.5,30.05,NNW,340,0.0,0.0,94,0.00,CLR,,0.00,WeatherDisplay:10.37,2013-08-04 07:55:00,
2013-08-04 03:00:00,53.1,51.4,30.05,NNW,340,0.0,0.0,94,0.00,CLR,,0.00,WeatherDisplay:10.37,2013-08-04 08:00:00,
2013-08-04 03:04:00,52.9,51.2,30.06,NNW,340,0.0,0.0,94,0.00,CLR,,0.00,WeatherDisplay:10.37,2013-08-04 08:04:00,
2013-08-04 03:10:00,52.8,51.1,30.06,NNW,340,0.0,0.0,94,0.00,CLR,,0.00,WeatherDisplay:10.37,2013-08-04 08:10:00,
2013-08-04 03:15:00,52.8,51.1,30.06,NNW,340,0.0,0.0,94,0.00,CLR,,0.00,WeatherDisplay:10.37,2013-08-04 08:15:00,
2013-08-04 03:20:00,52.6,50.9,30.07,NNW,340,0.0,0.0,94,0.00,CLR,,0.00,WeatherDisplay:10.37,2013-08-04 08:20:00,
2013-08-04 03:25:00,52.5,51.1,30.07,NNW,340,0.0,0.0,95,0.00,CLR,,0.00,WeatherDisplay:10.37,2013-08-04 08:25:00,
2013-08-04 03:30:00,52.3,50.9,30.07,NNW,340,0.0,0.0,95,0.00,CLR,,0.00,WeatherDisplay:10.37,2013-08-04 08:30:00,
2013-08-04 03:35:00,52.2,51.1,30.06,NNW,340,0.0,0.0,96,0.00,CLR,,0.00,WeatherDisplay:10.37,2013-08-04 08:35:00,
2013-08-04 03:40:00,52.1,51.0,30.06,NNW,340,0.0,0.0,96,0.00,CLR,,0.00,WeatherDisplay:10.37,2013-08-04 08:40:00,
2013-08-04 03:45:00,52.0,50.9,30.06,NNW,340,0.0,0.0,96,0.00,CLR,,0.00,WeatherDisplay:10.37,2013-08-04 08:45:00,
2013-08-04 03:50:00,52.0,50.9,30.06,NNW,340,0.0,0.0,96,0.00,CLR,,0.00,WeatherDisplay:10.37,2013-08-04 08:50:00,
2013-08-04 03:55:00,51.9,50.8,30.06,NNW,340,0.0,0.0,96,0.00,CLR,,0.00,WeatherDisplay:10.37,2013-08-04 08:55:00,
2013-08-04 04:00:00,51.9,50.8,30.06,NNW,340,0.0,0.0,96,0.00,CLR,,0.00,WeatherDisplay:10.37,2013-08-04 09:00:00,
2013-08-04 04:04:00,51.7,50.6,30.06,NNW,340,0.0,0.0,96,0.00,CLR,,0.00,WeatherDisplay:10.37,2013-08-04 09:04:00,
2013-08-04 04:10:00,51.6,50.5,30.06,NNW,340,0.0,0.0,96,0.00,CLR,,0.00,WeatherDisplay:10.37,2013-08-04 09:10:00,
2013-08-04 04:15:00,51.5,50.4,30.06,NNW,340,0.0,0.0,96,0.00,CLR,,0.00,WeatherDisplay:10.37,2013-08-04 09:15:00,
2013-08-04 04:20:00,51.4,50.3,30.06,NNW,340,0.0,0.0,96,0.00,CLR,,0.00,WeatherDisplay:10.37,2013-08-04 09:20:00,
2013-08-04 04:25:00,51.3,50.5,30.06,NNW,340,0.0,0.0,97,0.00,CLR,,0.00,WeatherDisplay:10.37,2013-08-04 09:25:00,
2013-08-04 04:30:00,51.3,50.5,30.06,NNW,340,0.0,0.0,97,0.00,CLR,,0.00,WeatherDisplay:10.37,2013-08-04 09:30:00,
2013-08-04 04:35:00,51.1,50.3,30.06,NNW,340,0.0,0.0,97,0.00,CLR,,0.00,WeatherDisplay:10.37,2013-08-04 09:35:00,
2013-08-04 04:39:00,51.1,50.3,30.06,NNW,340,0.0,0.0,97,0.00,CLR,,0.00,WeatherDisplay:10.37,2013-08-04 09:39:00,
2013-08-04 04:45:00,51.1,50.3,30.06,NNW,340,0.0,0.0,97,0.00,CLR,,0.00,WeatherDisplay:10.37,2013-08-04 09:45:00,
2013-08-04 04:50:00,51.0,50.2,30.05,NNW,340,0.0,0.0,97,0.00,CLR,,0.00,WeatherDisplay:10.37,2013-08-04 09:50:00,
2013-08-04 04:55:00,51.0,50.2,30.05,NNW,340,0.0,0.0,97,0.00,CLR,,0.00,WeatherDisplay:10.37,2013-08-04 09:55:00,
2013-08-04 05:00:00,51.0,50.5,30.05,NNW,340,0.0,0.0,98,0.00,CLR,,0.00,WeatherDisplay:10.37,2013-08-04 10:00:00,
2013-08-04 05:04:00,51.2,50.6,30.05,NNW,340,0.0,0.0,98,0.00,CLR,,0.00,WeatherDisplay:10.37,2013-08-04 10:04:00,
2013-08-04 05:10:00,51.4,50.9,30.05,NNW,340,0.0,0.0,98,0.00,CLR,,0.00,WeatherDisplay:10.37,2013-08-04 10:10:00,
2013-08-04 05:15:00,51.4,50.9,30.05,NNW,340,0.0,0.0,98,0.00,CLR,,0.00,WeatherDisplay:10.37,2013-08-04 10:15:00,
2013-08-04 05:19:00,51.6,51.1,30.07,NNW,340,0.0,0.0,98,0.00,CLR,,0.00,WeatherDisplay:10.37,2013-08-04 10:19:00,
2013-08-04 05:24:00,51.6,51.3,30.07,NNW,340,0.0,0.0,99,0.00,CLR,,0.00,WeatherDisplay:10.37,2013-08-04 10:24:00,
2013-08-04 05:30:00,51.6,51.3,30.07,NNW,340,0.0,0.0,99,0.00,CLR,,0.00,WeatherDisplay:10.37,2013-08-04 10:30:00,
2013-08-04 05:34:00,51.6,51.3,30.07,NNW,340,0.0,0.0,99,0.00,CLR,,0.00,WeatherDisplay:10.37,2013-08-04 10:34:00,
2013-08-04 05:40:00,51.6,51.3,30.07,NNW,340,0.0,0.0,99,0.00,CLR,,0.00,WeatherDisplay:10.37,2013-08-04 10:40:00,
2013-08-04 05:45:00,51.6,51.3,30.07,NNW,340,0.0,0.0,99,0.00,CLR,,0.00,WeatherDisplay:10.37,2013-08-04 10:45:00,
2013-08-04 05:50:00,51.6,51.3,30.07,NNW,340,0.0,0.0,99,0.00,CLR,,0.00,WeatherDisplay:10.37,2013-08-04 10:50:00,
2013-08-04 05:55:00,52.0,52.0,30.07,NNW,340,0.0,0.0,100,0.00,CLR,,0.00,WeatherDisplay:10.37,2013-08-04 10:55:00,
2013-08-04 05:59:00,52.0,51.7,30.07,NNW,340,0.0,0.0,99,0.00,CLR,,0.00,WeatherDisplay:10.37,2013-08-04 10:59:00,
2013-08-04 06:05:00,51.7,51.5,30.07,NNW,340,0.0,0.0,99,0.00,CLR,,0.00,WeatherDisplay:10.37,2013-08-04 11:05:00,
2013-08-04 06:09:00,51.7,51.4,30.07,NNW,340,0.0,0.0,99,0.00,CLR,,0.00,WeatherDisplay:10.37,2013-08-04 11:09:00,
2013-08-04 06:15:00,51.7,51.7,30.07,NNW,340,0.0,0.0,100,0.00,CLR,,0.00,WeatherDisplay:10.37,2013-08-04 11:15:00,
2013-08-04 06:20:00,51.9,51.9,30.08,NNW,340,0.0,0.0,100,0.00,CLR,,0.00,WeatherDisplay:10.37,2013-08-04 11:20:00,
2013-08-04 06:25:00,52.0,52.0,30.08,NNW,340,0.0,0.0,100,0.00,CLR,,0.00,WeatherDisplay:10.37,2013-08-04 11:25:00,
2013-08-04 06:30:00,52.3,52.3,30.08,NNW,340,0.0,0.0,100,0.00,CLR,,0.00,WeatherDisplay:10.37,2013-08-04 11:30:00,
2013-08-04 06:35:00,52.5,52.5,30.08,NNW,340,0.0,0.0,100,0.00,CLR,,0.00,WeatherDisplay:10.37,2013-08-04 11:35:00,
2013-08-04 06:40:00,52.8,52.8,30.08,NNW,340,0.0,0.0,100,0.00,CLR,,0.00,WeatherDisplay:10.37,2013-08-04 11:40:00,
2013-08-04 06:44:00,53.3,53.3,30.08,NNW,340,0.0,0.0,100,0.00,CLR,,0.00,WeatherDisplay:10.37,2013-08-04 11:44:00,
2013-08-04 06:50:00,53.9,53.9,30.08,NNW,340,0.0,0.0,100,0.00,CLR,,0.00,WeatherDisplay:10.37,2013-08-04 11:50:00,
2013-08-04 06:54:00,54.6,54.6,30.08,North,2,0.0,0.0,100,0.00,CLR,,0.00,WeatherDisplay:10.37,2013-08-04 11:54:00,
2013-08-04 07:00:00,55.1,55.1,30.08,NE,41,0.0,0.0,100,0.00,CLR,,0.00,WeatherDisplay:10.37,2013-08-04 12:00:00,
2013-08-04 07:04:00,55.9,55.9,30.08,ENE,68,0.0,0.0,100,0.00,CLR,,0.00,WeatherDisplay:10.37,2013-08-04 12:04:00,
2013-08-04 07:10:00,56.6,56.6,30.08,East,81,0.0,0.0,100,0.00,CLR,,0.00,WeatherDisplay:10.37,2013-08-04 12:10:00,
2013-08-04 07:15:00,57.5,57.5,30.08,East,81,0.0,0.0,100,0.00,CLR,,0.00,WeatherDisplay:10.37,2013-08-04 12:15:00,
2013-08-04 07:25:00,58.3,57.5,30.09,East,81,0.0,0.0,97,0.00,CLR,,0.00,WeatherDisplay:10.37,2013-08-04 12:25:00,
2013-08-04 07:29:00,58.4,57.3,30.09,East,81,0.0,0.0,96,0.00,CLR,,0.00,WeatherDisplay:10.37,2013-08-04 12:29:00,
2013-08-04 07:35:00,58.8,58.0,30.09,East,81,0.0,0.0,97,0.00,CLR,,0.00,WeatherDisplay:10.37,2013-08-04 12:35:00,
2013-08-04 07:39:00,59.1,57.9,30.09,East,81,0.0,0.0,96,0.00,CLR,,0.00,WeatherDisplay:10.37,2013-08-04 12:39:00,
2013-08-04 07:45:00,59.3,58.2,30.09,ENE,77,0.0,0.0,96,0.00,CLR,,0.00,WeatherDisplay:10.37,2013-08-04 12:45:00,
2013-08-04 07:49:00,59.5,57.8,30.10,ENE,69,0.0,0.0,94,0.00,CLR,,0.00,WeatherDisplay:10.37,2013-08-04 12:49:00,
2013-08-04 07:55:00,59.7,57.7,30.10,ENE,69,0.0,0.0,93,0.00,CLR,,0.00,WeatherDisplay:10.37,2013-08-04 12:55:00,
2013-08-04 08:00:00,59.9,57.6,30.10,ENE,64,0.0,0.0,92,0.00,CLR,,0.00,WeatherDisplay:10.37,2013-08-04 13:00:00,
2013-08-04 08:05:00,60.2,57.6,30.11,ENE,62,0.0,0.0,91,0.00,CLR,,0.00,WeatherDisplay:10.37,2013-08-04 13:05:00,
2013-08-04 08:10:00,60.6,57.7,30.11,ENE,66,0.0,0.0,90,0.00,CLR,,0.00,WeatherDisplay:10.37,2013-08-04 13:10:00,
2013-08-04 08:14:00,61.0,57.1,30.11,ENE,67,0.0,0.0,87,0.00,CLR,,0.00,WeatherDisplay:10.37,2013-08-04 13:14:00,
2013-08-04 08:20:00,61.3,57.4,30.11,ENE,64,0.0,0.0,87,0.00,CLR,,0.00,WeatherDisplay:10.37,2013-08-04 13:20:00,
2013-08-04 08:25:00,61.5,56.9,30.11,ENE,65,0.0,0.0,85,0.00,CLR,,0.00,WeatherDisplay:10.37,2013-08-04 13:25:00,
2013-08-04 08:30:00,61.8,56.9,30.11,ENE,57,0.0,0.0,84,0.00,CLR,,0.00,WeatherDisplay:10.37,2013-08-04 13:30:00,
2013-08-04 08:35:00,62.3,57.4,30.11,ENE,58,0.0,0.0,84,0.00,CLR,,0.00,WeatherDisplay:10.37,2013-08-04 13:35:00,
2013-08-04 08:40:00,62.5,57.3,30.11,NE,55,0.0,0.0,83,0.00,CLR,,0.00,WeatherDisplay:10.37,2013-08-04 13:40:00,
2013-08-04 08:45:00,62.8,57.9,30.11,ENE,61,0.0,0.0,84,0.00,CLR,,0.00,WeatherDisplay:10.37,2013-08-04 13:45:00,
2013-08-04 08:50:00,63.2,57.9,30.11,ENE,70,0.0,0.0,83,0.00,CLR,,0.00,WeatherDisplay:10.37,2013-08-04 13:50:00,
2013-08-04 08:55:00,63.5,57.6,30.11,ENE,67,0.0,0.0,81,0.00,CLR,,0.00,WeatherDisplay:10.37,2013-08-04 13:55:00,
2013-08-04 08:59:00,63.7,57.4,30.11,ENE,68,0.0,0.0,80,0.00,CLR,,0.00,WeatherDisplay:10.37,2013-08-04 13:59:00,
2013-08-04 09:05:00,63.9,57.6,30.11,ENE,69,0.0,0.0,80,0.00,CLR,,0.00,WeatherDisplay:10.37,2013-08-04 14:05:00,
2013-08-04 09:10:00,64.0,57.4,30.11,ENE,70,0.0,0.0,79,0.00,CLR,,0.00,WeatherDisplay:10.37,2013-08-04 14:10:00,
2013-08-04 09:15:00,64.3,57.6,30.11,ENE,76,0.0,0.0,79,0.00,CLR,,0.00,WeatherDisplay:10.37,2013-08-04 14:15:00,
2013-08-04 09:20:00,64.5,57.5,30.11,East,79,0.0,0.0,78,0.00,CLR,,0.00,WeatherDisplay:10.37,2013-08-04 14:20:00,
2013-08-04 09:25:00,64.8,57.4,30.11,East,79,0.0,0.0,77,0.00,CLR,,0.00,WeatherDisplay:10.37,2013-08-04 14:25:00,
2013-08-04 09:29:00,65.2,57.8,30.11,ENE,78,0.0,0.0,77,0.00,CLR,,0.00,WeatherDisplay:10.37,2013-08-04 14:29:00,
2013-08-04 09:34:00,65.5,57.7,30.11,ENE,78,0.0,0.0,76,0.00,CLR,,0.00,WeatherDisplay:10.37,2013-08-04 14:34:00,
2013-08-04 09:40:00,65.6,56.7,30.11,ENE,72,0.0,0.0,73,0.00,CLR,,0.00,WeatherDisplay:10.37,2013-08-04 14:40:00,
2013-08-04 09:45:00,65.8,55.7,30.11,ENE,64,0.0,0.0,70,0.00,CLR,,0.00,WeatherDisplay:10.37,2013-08-04 14:45:00,
2013-08-04 09:50:00,66.0,55.5,30.12,NNE,27,0.0,0.0,69,0.00,CLR,,0.00,WeatherDisplay:10.37,2013-08-04 14:50:00,
2013-08-04 09:54:00,66.2,57.3,30.12,North,5,0.0,0.0,73,0.00,CLR,,0.00,WeatherDisplay:10.37,2013-08-04 14:54:00,
2013-08-04 10:00:00,66.7,57.7,30.12,NNE,32,0.0,0.0,73,0.00,CLR,,0.00,WeatherDisplay:10.37,2013-08-04 15:00:00,
2013-08-04 10:05:00,66.8,55.9,30.12,NE,46,0.0,0.0,68,0.00,CLR,,0.00,WeatherDisplay:10.37,2013-08-04 15:05:00,
2013-08-04 10:10:00,66.4,55.9,30.12,NE,46,0.0,0.0,69,0.00,CLR,,0.00,WeatherDisplay:10.37,2013-08-04 15:10:00,
2013-08-04 10:15:00,66.9,58.0,30.12,NE,46,0.0,0.0,73,0.00,CLR,,0.00,WeatherDisplay:10.37,2013-08-04 15:15:00,
2013-08-04 10:20:00,67.6,58.2,30.11,NE,46,0.0,0.0,72,0.00,CLR,,0.00,WeatherDisplay:10.37,2013-08-04 15:20:00,
2013-08-04 10:25:00,68.2,58.9,30.11,NE,46,0.0,0.0,72,0.00,CLR,,0.00,WeatherDisplay:10.37,2013-08-04 15:25:00,
2013-08-04 10:30:00,68.7,58.1,30.11,NE,47,0.0,0.0,69,0.00,CLR,,0.00,WeatherDisplay:10.37,2013-08-04 15:30:00,
2013-08-04 10:35:00,68.9,58.3,30.11,NE,47,0.0,0.0,69,0.00,CLR,,0.00,WeatherDisplay:10.37,2013-08-04 15:35:00,
2013-08-04 10:40:00,68.4,55.7,30.11,NNE,20,0.0,0.0,64,0.00,CLR,,0.00,WeatherDisplay:10.37,2013-08-04 15:40:00,
2013-08-04 10:44:00,67.5,56.6,30.11,North,1,0.0,0.0,68,0.00,CLR,,0.00,WeatherDisplay:10.37,2013-08-04 15:44:00,
2013-08-04 10:50:00,67.4,57.7,30.11,North,360,0.0,0.0,71,0.00,CLR,,0.00,WeatherDisplay:10.37,2013-08-04 15:50:00,
2013-08-04 10:55:00,67.7,58.0,30.11,North,360,0.0,0.0,71,0.00,CLR,,0.00,WeatherDisplay:10.37,2013-08-04 15:55:00,
2013-08-04 10:59:00,68.3,56.9,30.11,North,360,0.0,0.0,67,0.00,CLR,,0.00,WeatherDisplay:10.37,2013-08-04 15:59:00,
2013-08-04 11:05:00,68.3,56.5,30.11,North,360,0.0,0.0,66,0.00,CLR,,0.00,WeatherDisplay:10.37,2013-08-04 16:05:00,
2013-08-04 11:10:00,68.6,57.6,30.11,North,360,0.0,0.0,68,0.00,CLR,,0.00,WeatherDisplay:10.37,2013-08-04 16:10:00,
2013-08-04 11:14:00,68.6,57.6,30.11,North,360,0.0,0.0,68,0.00,CLR,,0.00,WeatherDisplay:10.37,2013-08-04 16:14:00,
2013-08-04 11:20:00,68.4,57.5,30.11,North,360,0.0,0.0,68,0.00,CLR,,0.00,WeatherDisplay:10.37,2013-08-04 16:20:00,
2013-08-04 11:25:00,68.1,57.1,30.11,North,360,0.0,0.0,68,0.00,CLR,,0.00,WeatherDisplay:10.37,2013-08-04 16:25:00,
2013-08-04 11:30:00,68.1,57.5,30.11,North,360,0.0,0.0,69,0.00,CLR,,0.00,WeatherDisplay:10.37,2013-08-04 16:30:00,
2013-08-04 11:35:00,68.3,58.1,30.11,North,355,0.0,0.0,70,0.00,CLR,,0.00,WeatherDisplay:10.37,2013-08-04 16:35:00,
2013-08-04 11:40:00,68.4,57.0,30.11,NNW,336,0.0,0.0,67,0.00,CLR,,0.00,WeatherDisplay:10.37,2013-08-04 16:40:00,
2013-08-04 11:45:00,68.4,56.6,30.11,NW,323,0.0,0.0,66,0.00,CLR,,0.00,WeatherDisplay:10.37,2013-08-04 16:45:00,
2013-08-04 11:50:00,67.8,56.1,30.11,NNW,331,0.0,0.0,66,0.00,CLR,,0.00,WeatherDisplay:10.37,2013-08-04 16:50:00,
2013-08-04 11:54:00,67.4,56.5,30.11,NNW,341,0.0,0.0,68,0.00,CLR,,0.00,WeatherDisplay:10.37,2013-08-04 16:54:00,
2013-08-04 12:00:00,67.9,56.1,30.11,NNW,341,0.0,0.0,66,0.00,CLR,,0.00,WeatherDisplay:10.37,2013-08-04 17:00:00,
2013-08-04 12:05:00,68.7,55.6,30.10,NNW,337,0.0,0.0,63,0.00,CLR,,0.00,WeatherDisplay:10.37,2013-08-04 17:05:00,
2013-08-04 12:10:00,69.1,56.0,30.10,NNW,331,0.0,0.0,63,0.00,CLR,,0.00,WeatherDisplay:10.37,2013-08-04 17:10:00,
2013-08-04 12:15:00,69.4,58.0,30.10,NW,326,0.0,0.0,67,0.00,CLR,,0.00,WeatherDisplay:10.37,2013-08-04 17:15:00,
2013-08-04 12:20:00,70.3,58.4,30.09,NW,314,0.0,0.0,66,0.00,CLR,,0.00,WeatherDisplay:10.37,2013-08-04 17:20:00,
2013-08-04 12:25:00,71.4,58.6,30.09,NW,304,0.0,0.0,64,0.00,CLR,,0.00,WeatherDisplay:10.37,2013-08-04 17:25:00,
2013-08-04 12:30:00,72.0,58.7,30.09,NW,304,0.0,0.0,63,0.00,CLR,,0.00,WeatherDisplay:10.37,2013-08-04 17:30:00,
2013-08-04 12:34:00,71.2,54.7,30.09,NW,307,0.0,0.0,56,0.00,CLR,,0.00,WeatherDisplay:10.37,2013-08-04 17:34:00,
2013-08-04 12:40:00,70.6,56.5,30.09,NW,309,0.0,0.0,61,0.00,CLR,,0.00,WeatherDisplay:10.37,2013-08-04 17:40:00,
2013-08-04 12:44:00,70.7,58.4,30.09,NW,309,0.0,0.0,65,0.00,CLR,,0.00,WeatherDisplay:10.37,2013-08-04 17:44:00,
2013-08-04 12:50:00,71.7,58.9,30.08,WNW,303,0.0,0.0,64,0.00,CLR,,0.00,WeatherDisplay:10.37,2013-08-04 17:50:00,
2013-08-04 12:55:00,72.7,58.0,30.08,WNW,299,0.0,0.0,60,0.00,CLR,,0.00,WeatherDisplay:10.37,2013-08-04 17:55:00,
2013-08-04 13:00:00,72.7,58.5,30.08,WNW,298,0.0,0.0,61,0.00,CLR,,0.00,WeatherDisplay:10.37,2013-08-04 18:00:00,
2013-08-04 13:05:00,73.0,56.4,30.08,WNW,298,0.0,0.0,56,0.00,CLR,,0.00,WeatherDisplay:10.37,2013-08-04 18:05:00,
2013-08-04 13:09:00,73.4,58.2,30.08,WNW,295,0.0,0.0,59,0.00,CLR,,0.00,WeatherDisplay:10.37,2013-08-04 18:09:00,
2013-08-04 13:15:00,73.9,57.7,30.08,West,269,0.0,0.0,57,0.00,CLR,,0.00,WeatherDisplay:10.37,2013-08-04 18:15:00,
2013-08-04 13:20:00,74.4,57.7,30.07,SSW,207,0.0,0.0,56,0.00,CLR,,0.00,WeatherDisplay:10.37,2013-08-04 18:20:00,
2013-08-04 13:25:00,74.4,56.2,30.07,SSW,198,0.0,0.0,53,0.00,CLR,,0.00,WeatherDisplay:10.37,2013-08-04 18:25:00,
2013-08-04 13:30:00,73.9,54.6,30.07,SSW,205,0.0,0.0,51,0.00,CLR,,0.00,WeatherDisplay:10.37,2013-08-04 18:30:00,
2013-08-04 13:35:00,73.0,57.3,30.07,SSW,205,0.0,0.0,58,0.00,CLR,,0.00,WeatherDisplay:10.37,2013-08-04 18:35:00,
2013-08-04 13:40:00,73.2,56.6,30.07,SSW,205,0.0,0.0,56,0.00,CLR,,0.00,WeatherDisplay:10.37,2013-08-04 18:40:00,
2013-08-04 13:45:00,73.5,56.3,30.07,SSW,206,0.0,0.0,55,0.00,CLR,,0.00,WeatherDisplay:10.37,2013-08-04 18:45:00,
2013-08-04 13:50:00,72.8,55.7,30.06,WSW,248,0.0,0.0,55,0.00,CLR,,0.00,WeatherDisplay:10.37,2013-08-04 18:50:00,
2013-08-04 13:54:00,72.2,54.1,30.06,WNW,299,0.0,0.0,53,0.00,CLR,,0.00,WeatherDisplay:10.37,2013-08-04 18:54:00,
2013-08-04 14:00:00,72.1,55.5,30.06,WNW,295,0.0,0.0,56,0.00,CLR,,0.00,WeatherDisplay:10.37,2013-08-04 19:00:00,
2013-08-04 14:05:00,72.0,55.9,30.06,WNW,286,0.0,0.0,57,0.00,CLR,,0.00,WeatherDisplay:10.37,2013-08-04 19:05:00,
2013-08-04 14:10:00,72.1,56.0,30.06,WNW,284,0.0,0.0,57,0.00,CLR,,0.00,WeatherDisplay:10.37,2013-08-04 19:10:00,
2013-08-04 14:14:00,72.5,54.9,30.06,WNW,282,0.0,0.0,54,0.00,CLR,,0.00,WeatherDisplay:10.37,2013-08-04 19:14:00,
2013-08-04 14:25:00,72.8,53.1,30.06,NW,315,0.0,0.0,50,0.00,CLR,,0.00,WeatherDisplay:10.37,2013-08-04 19:25:00,
2013-08-04 14:30:00,73.0,55.4,30.06,North,1,0.0,0.0,54,0.00,CLR,,0.00,WeatherDisplay:10.37,2013-08-04 19:30:00,
2013-08-04 14:35:00,73.2,54.5,30.05,North,2,0.0,0.0,52,0.00,CLR,,0.00,WeatherDisplay:10.37,2013-08-04 19:35:00,
2013-08-04 14:45:00,73.6,55.4,30.05,North,357,0.0,0.0,53,0.00,CLR,,0.00,WeatherDisplay:10.37,2013-08-04 19:45:00,
2013-08-04 14:49:00,73.9,54.1,30.05,NNW,333,0.0,0.0,50,0.00,CLR,,0.00,WeatherDisplay:10.37,2013-08-04 19:49:00,
2013-08-04 14:55:00,73.4,53.1,30.05,NNW,331,0.0,0.0,49,0.00,CLR,,0.00,WeatherDisplay:10.37,2013-08-04 19:55:00,
2013-08-04 15:00:00,73.3,53.5,30.05,NNW,331,0.0,0.0,50,0.00,CLR,,0.00,WeatherDisplay:10.37,2013-08-04 20:00:00,
2013-08-04 15:05:00,73.9,51.8,30.05,NNW,331,0.0,0.0,46,0.00,CLR,,0.00,WeatherDisplay:10.37,2013-08-04 20:05:00,
2013-08-04 15:10:00,73.8,52.3,30.05,NNW,332,0.0,0.0,47,0.00,CLR,,0.00,WeatherDisplay:10.37,2013-08-04 20:10:00,
2013-08-04 15:15:00,73.3,51.8,30.05,NNW,334,0.0,0.0,47,0.00,CLR,,0.00,WeatherDisplay:10.37,2013-08-04 20:15:00,
2013-08-04 15:20:00,73.0,53.8,30.05,NNW,341,0.0,0.0,51,0.00,CLR,,0.00,WeatherDisplay:10.37,2013-08-04 20:20:00,
2013-08-04 15:24:00,72.8,52.5,30.05,NNW,338,0.0,0.0,49,0.00,CLR,,0.00,WeatherDisplay:10.37,2013-08-04 20:24:00,
2013-08-04 15:29:00,73.0,52.7,30.05,NNW,347,0.0,0.0,49,0.00,CLR,,0.00,WeatherDisplay:10.37,2013-08-04 20:29:00,
2013-08-04 15:35:00,72.8,53.6,30.05,North,360,0.0,0.0,51,0.00,CLR,,0.00,WeatherDisplay:10.37,2013-08-04 20:35:00,
2013-08-04 15:45:00,72.8,54.1,30.05,NNE,29,0.0,0.0,52,0.00,CLR,,0.00,WeatherDisplay:10.37,2013-08-04 20:45:00,
2013-08-04 15:50:00,72.5,53.3,30.05,NNE,28,0.0,0.0,51,0.00,CLR,,0.00,WeatherDisplay:10.37,2013-08-04 20:50:00,
2013-08-04 15:55:00,72.3,52.1,30.05,NE,49,0.0,0.0,49,0.00,CLR,,0.00,WeatherDisplay:10.37,2013-08-04 20:55:00,
2013-08-04 16:00:00,72.5,51.7,30.05,ENE,71,0.0,0.0,48,0.00,CLR,,0.00,WeatherDisplay:10.37,2013-08-04 21:00:00,
2013-08-04 16:05:00,72.9,53.1,30.05,ENE,74,0.0,0.0,50,0.00,CLR,,0.00,WeatherDisplay:10.37,2013-08-04 21:05:00,
2013-08-04 16:10:00,73.4,55.2,30.05,ENE,74,0.0,0.0,53,0.00,CLR,,0.00,WeatherDisplay:10.37,2013-08-04 21:10:00,
2013-08-04 16:15:00,73.7,55.0,30.05,East,89,0.0,0.0,52,0.00,CLR,,0.00,WeatherDisplay:10.37,2013-08-04 21:15:00,
2013-08-04 16:20:00,73.6,52.7,30.04,SE,132,0.0,0.0,48,0.00,CLR,,0.00,WeatherDisplay:10.37,2013-08-04 21:20:00,
2013-08-04 16:25:00,73.3,55.1,30.04,SSE,152,0.0,0.0,53,0.00,CLR,,0.00,WeatherDisplay:10.37,2013-08-04 21:25:00,
2013-08-04 16:30:00,73.5,57.8,30.04,SSE,152,0.0,0.0,58,0.00,CLR,,0.00,WeatherDisplay:10.37,2013-08-04 21:30:00,
2013-08-04 16:35:00,73.9,57.7,30.04,SSE,152,0.0,0.0,57,0.00,CLR,,0.00,WeatherDisplay:10.37,2013-08-04 21:35:00,
2013-08-04 16:40:00,73.9,56.7,30.04,SSE,152,0.0,0.0,55,0.00,CLR,,0.00,WeatherDisplay:10.37,2013-08-04 21:40:00,
2013-08-04 16:44:00,74.0,57.8,30.04,SSE,153,0.0,1.0,57,0.00,CLR,,0.00,WeatherDisplay:10.37,2013-08-04 21:44:00,
2013-08-04 16:50:00,74.0,57.3,30.04,SSE,156,0.0,0.0,56,0.00,CLR,,0.00,WeatherDisplay:10.37,2013-08-04 21:50:00,
2013-08-04 16:55:00,74.2,57.0,30.04,SSE,156,0.0,0.0,55,0.00,CLR,,0.00,WeatherDisplay:10.37,2013-08-04 21:55:00,
2013-08-04 16:59:00,74.3,54.4,30.04,SSE,156,0.0,0.0,50,0.00,CLR,,0.00,WeatherDisplay:10.37,2013-08-04 21:59:00,
2013-08-04 17:05:00,74.4,57.2,30.04,SSE,156,0.0,0.0,55,0.00,CLR,,0.00,WeatherDisplay:10.37,2013-08-04 22:05:00,
2013-08-04 17:10:00,74.5,57.3,30.04,SSE,156,0.0,0.0,55,0.00,CLR,,0.00,WeatherDisplay:10.37,2013-08-04 22:10:00,
2013-08-04 17:15:00,74.6,58.4,30.04,SSE,156,0.0,0.0,57,0.00,CLR,,0.00,WeatherDisplay:10.37,2013-08-04 22:15:00,
2013-08-04 17:20:00,74.4,58.2,30.04,SSE,156,0.0,0.0,57,0.00,CLR,,0.00,WeatherDisplay:10.37,2013-08-04 22:20:00,
2013-08-04 17:25:00,74.1,58.4,30.04,SSE,156,0.0,0.0,58,0.00,CLR,,0.00,WeatherDisplay:10.37,2013-08-04 22:25:00,
2013-08-04 17:30:00,73.9,57.2,30.04,SSE,156,0.0,0.0,56,0.00,CLR,,0.00,WeatherDisplay:10.37,2013-08-04 22:30:00,
2013-08-04 17:34:00,73.7,52.8,30.03,SSE,156,0.0,0.0,48,0.00,CLR,,0.00,WeatherDisplay:10.37,2013-08-04 22:34:00,
2013-08-04 17:40:00,73.3,52.9,30.03,SSE,156,0.0,0.0,49,0.00,CLR,,0.00,WeatherDisplay:10.37,2013-08-04 22:40:00,
2013-08-04 17:45:00,73.0,52.7,30.03,SSE,155,0.0,0.0,49,0.00,CLR,,0.00,WeatherDisplay:10.37,2013-08-04 22:45:00,
2013-08-04 17:50:00,72.8,53.1,30.02,SSE,155,0.0,0.0,50,0.00,CLR,,0.00,WeatherDisplay:10.37,2013-08-04 22:50:00,
2013-08-04 17:54:00,72.7,51.3,30.02,SSE,155,0.0,0.0,47,0.00,CLR,,0.00,WeatherDisplay:10.37,2013-08-04 22:54:00,
2013-08-04 17:59:00,72.7,55.6,30.02,SSE,156,0.0,0.0,55,0.00,CLR,,0.00,WeatherDisplay:10.37,2013-08-04 22:59:00,
2013-08-04 18:04:00,72.7,56.6,30.02,SSE,156,0.0,0.0,57,0.00,CLR,,0.00,WeatherDisplay:10.37,2013-08-04 23:04:00,
2013-08-04 18:10:00,72.7,56.6,30.02,SSE,156,0.0,0.0,57,0.00,CLR,,0.00,WeatherDisplay:10.37,2013-08-04 23:10:00,
2013-08-04 18:15:00,72.7,57.5,30.02,SSE,156,0.0,0.0,59,0.00,CLR,,0.00,WeatherDisplay:10.37,2013-08-04 23:15:00,
2013-08-04 18:19:00,72.7,57.1,30.02,SSE,156,0.0,0.0,58,0.00,CLR,,0.00,WeatherDisplay:10.37,2013-08-04 23:19:00,
2013-08-04 18:25:00,72.5,54.9,30.02,SSE,155,0.0,0.0,54,0.00,CLR,,0.00,WeatherDisplay:10.37,2013-08-04 23:25:00,
2013-08-04 18:30:00,72.1,56.5,30.02,ESE,122,0.0,0.0,58,0.00,CLR,,0.00,WeatherDisplay:10.37,2013-08-04 23:30:00,
2013-08-04 18:35:00,71.3,56.7,30.02,ENE,67,0.0,0.0,60,0.00,CLR,,0.00,WeatherDisplay:10.37,2013-08-04 23:35:00,
2013-08-04 18:40:00,70.4,55.8,30.02,ENE,67,0.0,0.0,60,0.00,CLR,,0.00,WeatherDisplay:10.37,2013-08-04 23:40:00,
2013-08-04 18:44:00,69.8,55.8,30.02,ENE,76,0.0,0.0,61,0.00,CLR,,0.00,WeatherDisplay:10.37,2013-08-04 23:44:00,
2013-08-04 18:50:00,69.4,56.7,30.01,ENE,78,0.0,0.0,64,0.00,CLR,,0.00,WeatherDisplay:10.37,2013-08-04 23:50:00,
2013-08-04 18:55:00,69.3,57.0,30.01,East,81,0.0,0.0,65,0.00,CLR,,0.00,WeatherDisplay:10.37,2013-08-04 23:55:00,
2013-08-04 19:00:00,69.0,55.5,30.01,East,79,0.0,0.0,62,0.00,CLR,,0.00,WeatherDisplay:10.37,2013-08-05 00:00:00,
2013-08-04 19:04:00,68.8,56.1,30.01,ENE,78,0.0,0.0,64,0.00,CLR,,0.00,WeatherDisplay:10.37,2013-08-05 00:04:00,
2013-08-04 19:10:00,68.8,57.4,30.01,East,79,0.0,0.0,67,0.00,CLR,,0.00,WeatherDisplay:10.37,2013-08-05 00:10:00,
2013-08-04 19:19:00,68.6,55.9,30.01,East,79,0.0,0.0,64,0.00,CLR,,0.00,WeatherDisplay:10.37,2013-08-05 00:19:00,
2013-08-04 19:25:00,68.4,56.6,30.01,East,79,0.0,0.0,66,0.00,CLR,,0.00,WeatherDisplay:10.37,2013-08-05 00:25:00,
2013-08-04 19:30:00,68.4,56.6,30.01,East,79,0.0,0.0,66,0.00,CLR,,0.00,WeatherDisplay:10.37,2013-08-05 00:30:00,
2013-08-04 19:35:00,68.3,56.1,30.00,East,79,0.0,0.0,65,0.00,CLR,,0.00,WeatherDisplay:10.37,2013-08-05 00:35:00,
2013-08-04 19:40:00,68.1,55.9,30.00,East,79,0.0,0.0,65,0.00,CLR,,0.00,WeatherDisplay:10.37,2013-08-05 00:40:00,
2013-08-04 19:45:00,67.9,56.1,30.00,East,79,0.0,0.0,66,0.00,CLR,,0.00,WeatherDisplay:10.37,2013-08-05 00:45:00,
2013-08-04 19:49:00,67.9,56.5,30.00,East,79,0.0,0.0,67,0.00,CLR,,0.00,WeatherDisplay:10.37,2013-08-05 00:49:00,
2013-08-04 19:55:00,67.9,57.4,30.00,East,79,0.0,0.0,69,0.00,CLR,,0.00,WeatherDisplay:10.37,2013-08-05 00:55:00,
2013-08-04 20:00:00,67.9,58.1,30.00,East,79,0.0,0.0,71,0.00,CLR,,0.00,WeatherDisplay:10.37,2013-08-05 01:00:00,
2013-08-04 20:05:00,67.8,58.4,30.00,East,79,0.0,0.0,72,0.00,CLR,,0.00,WeatherDisplay:10.37,2013-08-05 01:05:00,
2013-08-04 20:10:00,67.6,58.6,30.00,ESE,115,0.0,0.0,73,0.00,CLR,,0.00,WeatherDisplay:10.37,2013-08-05 01:10:00,
2013-08-04 20:15:00,67.3,59.1,30.00,SSE,149,0.0,0.0,75,0.00,CLR,,0.00,WeatherDisplay:10.37,2013-08-05 01:15:00,
2013-08-04 20:20:00,66.9,59.1,30.00,SSE,148,0.0,0.0,76,0.00,CLR,,0.00,WeatherDisplay:10.37,2013-08-05 01:20:00,
2013-08-04 20:29:00,66.3,58.9,30.00,SSE,149,0.0,0.0,77,0.00,CLR,,0.00,WeatherDisplay:10.37,2013-08-05 01:29:00,
2013-08-04 20:35:00,65.8,58.8,30.00,SE,128,0.0,0.0,78,0.00,CLR,,0.00,WeatherDisplay:10.37,2013-08-05 01:35:00,
2013-08-04 20:40:00,65.5,58.5,30.00,ESE,120,0.0,0.0,78,0.00,CLR,,0.00,WeatherDisplay:10.37,2013-08-05 01:40:00,
2013-08-04 20:45:00,65.2,58.2,30.00,SE,138,0.0,0.0,78,0.00,CLR,,0.00,WeatherDisplay:10.37,2013-08-05 01:45:00,
2013-08-04 20:50:00,64.8,57.8,30.01,SSE,149,0.0,0.0,78,0.00,CLR,,0.00,WeatherDisplay:10.37,2013-08-05 01:50:00,
2013-08-04 20:54:00,64.7,58.0,30.01,SSE,154,0.0,0.0,79,0.00,CLR,,0.00,WeatherDisplay:10.37,2013-08-05 01:54:00,
2013-08-04 21:00:00,64.5,57.8,30.01,SSE,153,0.0,0.0,79,0.00,CLR,,0.00,WeatherDisplay:10.37,2013-08-05 02:00:00,
2013-08-04 21:05:00,64.3,57.6,30.01,SSE,150,0.0,0.0,79,0.00,CLR,,0.00,WeatherDisplay:10.37,2013-08-05 02:05:00,
2013-08-04 21:10:00,64.2,57.9,30.01,SSE,152,0.0,0.0,80,0.00,CLR,,0.00,WeatherDisplay:10.37,2013-08-05 02:10:00,
2013-08-04 21:14:00,63.9,57.6,30.01,SSE,149,0.0,0.0,80,0.00,CLR,,0.00,WeatherDisplay:10.37,2013-08-05 02:14:00,
2013-08-04 21:20:00,63.7,57.4,30.01,SE,143,0.0,0.0,80,0.00,CLR,,0.00,WeatherDisplay:10.37,2013-08-05 02:20:00,
2013-08-04 21:25:00,63.4,57.5,30.01,SSE,151,0.0,0.0,81,0.00,CLR,,0.00,WeatherDisplay:10.37,2013-08-05 02:25:00,
2013-08-04 21:30:00,63.2,57.3,30.01,SE,134,0.0,0.0,81,0.00,CLR,,0.00,WeatherDisplay:10.37,2013-08-05 02:30:00,
2013-08-04 21:35:00,63.1,57.5,30.01,SE,133,0.0,0.0,82,0.00,CLR,,0.00,WeatherDisplay:10.37,2013-08-05 02:35:00,
2013-08-04 21:40:00,62.8,57.2,30.01,SSE,159,0.0,0.0,82,0.00,CLR,,0.00,WeatherDisplay:10.37,2013-08-05 02:40:00,
2013-08-04 21:45:00,62.6,57.0,30.01,SSE,158,0.0,0.0,82,0.00,CLR,,0.00,WeatherDisplay:10.37,2013-08-05 02:45:00,
2013-08-04 21:50:00,62.4,57.2,30.01,South,171,0.0,0.0,83,0.00,CLR,,0.00,WeatherDisplay:10.37,2013-08-05 02:50:00,
2013-08-04 21:54:00,62.1,57.2,30.01,South,189,0.0,0.0,84,0.00,CLR,,0.00,WeatherDisplay:10.37,2013-08-05 02:54:00,
2013-08-04 22:00:00,62.0,57.1,30.01,South,188,0.0,0.0,84,0.00,CLR,,0.00,WeatherDisplay:10.37,2013-08-05 03:00:00,
2013-08-04 22:04:00,61.6,56.7,30.01,South,177,0.0,0.0,84,0.00,CLR,,0.00,WeatherDisplay:10.37,2013-08-05 03:04:00,
2013-08-04 22:10:00,61.5,56.9,30.01,South,171,0.0,0.0,85,0.00,CLR,,0.00,WeatherDisplay:10.37,2013-08-05 03:10:00,
2013-08-04 22:14:00,61.3,57.1,30.01,South,170,0.0,0.0,86,0.00,CLR,,0.00,WeatherDisplay:10.37,2013-08-05 03:14:00,
2013-08-04 22:20:00,61.0,56.8,30.01,SSE,152,0.0,0.0,86,0.00,CLR,,0.00,WeatherDisplay:10.37,2013-08-05 03:20:00,
2013-08-04 22:25:00,60.9,56.7,30.01,SSE,159,0.0,0.0,86,0.00,CLR,,0.00,WeatherDisplay:10.37,2013-08-05 03:25:00,
2013-08-04 22:29:00,60.7,56.8,30.01,South,186,0.0,0.0,87,0.00,CLR,,0.00,WeatherDisplay:10.37,2013-08-05 03:29:00,
2013-08-04 22:35:00,60.5,56.6,30.01,SSW,207,0.0,0.0,87,0.00,CLR,,0.00,WeatherDisplay:10.37,2013-08-05 03:35:00,
2013-08-04 22:40:00,60.4,56.5,30.01,SW,216,0.0,0.0,87,0.00,CLR,,0.00,WeatherDisplay:10.37,2013-08-05 03:40:00,
2013-08-04 22:44:00,60.4,56.8,30.01,SW,229,0.0,0.0,88,0.00,CLR,,0.00,WeatherDisplay:10.37,2013-08-05 03:44:00,
2013-08-04 22:49:00,60.4,56.5,30.01,SSW,193,0.0,0.0,87,0.00,CLR,,0.00,WeatherDisplay:10.37,2013-08-05 03:49:00,
2013-08-04 22:55:00,60.2,56.6,30.01,SE,145,0.0,0.0,88,0.00,CLR,,0.00,WeatherDisplay:10.37,2013-08-05 03:55:00,
2013-08-04 23:00:00,60.2,56.6,30.01,SE,135,0.0,0.0,88,0.00,CLR,,0.00,WeatherDisplay:10.37,2013-08-05 04:00:00,
2013-08-04 23:05:00,60.1,56.5,30.01,SE,136,0.0,0.0,88,0.00,CLR,,0.00,WeatherDisplay:10.37,2013-08-05 04:05:00,
2013-08-04 23:10:00,59.9,56.3,30.01,SE,136,0.0,0.0,88,0.00,CLR,,0.00,WeatherDisplay:10.37,2013-08-05 04:10:00,
2013-08-04 23:14:00,59.8,56.2,30.01,SE,136,0.0,0.0,88,0.00,CLR,,0.00,WeatherDisplay:10.37,2013-08-05 04:14:00,
2013-08-04 23:20:00,59.6,56.4,30.01,SE,136,0.0,0.0,89,0.00,CLR,,0.00,WeatherDisplay:10.37,2013-08-05 04:20:00,
2013-08-04 23:25:00,59.5,56.3,30.01,SE,136,0.0,0.0,89,0.00,CLR,,0.00,WeatherDisplay:10.37,2013-08-05 04:25:00,
2013-08-04 23:30:00,59.3,56.4,30.01,SE,136,0.0,0.0,90,0.00,CLR,,0.00,WeatherDisplay:10.37,2013-08-05 04:30:00,
2013-08-04 23:35:00,59.2,56.3,30.01,SE,136,0.0,0.0,90,0.00,CLR,,0.00,WeatherDisplay:10.37,2013-08-05 04:35:00,
2013-08-04 23:40:00,59.0,56.4,30.01,SE,136,0.0,0.0,91,0.00,CLR,,0.00,WeatherDisplay:10.37,2013-08-05 04:40:00,
2013-08-04 23:45:00,59.0,56.3,30.01,SE,136,0.0,0.0,91,0.00,CLR,,0.00,WeatherDisplay:10.37,2013-08-05 04:45:00,
2013-08-04 23:50:00,58.9,56.6,30.01,SE,136,0.0,0.0,92,0.00,CLR,,0.00,WeatherDisplay:10.37,2013-08-05 04:50:00,
2013-08-04 23:55:00,58.7,56.4,30.01,SE,136,0.0,0.0,92,0.00,CLR,,0.00,WeatherDisplay:10.37,2013-08-05 04:55:00,